Wind_Speed
23 19 18 23 18 20 18 17 20 17 11 17 21 8 16 12 10 5 3 3 9 5 6 9 7 3 7 6 9 14 13 13
31 22 20 29 26 22 20 15 18 19 15 7 9 10 17 12 10 8 5 3 5 4 4 8 4 3 7 9 12 12 13 13
38 33 16 17 27 21 17 17 17 16 13 7 14 19 20 7 13 10 9 8 4 2 4 3 4 6 9 11 13 10 10 16
36 31 10 15 23 11 19 11 20 22 7 11 10 15 22 10 13 9 7 10 11 6 2 7 8 6 9 13 14 8 13 18
33 27 24 16 8 10 12 16 17 20 15 18 11 15 17 22 14 10 8 2 4 5 1 10 10 7 9 15 16 7 14 17
28 33 22 17 12 11 20 20 21 28 16 23 21 19 23 30 30 13 13 5 7 3 5 7 8 6 8 14 10 8 13 15
23 29 34 25 20 21 16 18 19 19 24 23 14 16 18 21 16 16 14 13 7 5 5 4 6 5 8 12 14 10 12 14
32 29 33 34 30 26 24 21 27 15 21 16 17 12 13 12 18 18 16 11 6 5 6 6 5 2 4 8 14 7 13 17
41 37 36 38 36 34 30 25 19 18 16 21 17 17 17 28 26 25 17 6 4 5 6 6 5 3 1 2 9 9 20 23
37 41 42 35 35 38 38 32 29 25 20 19 23 15 13 6 11 18 13 11 10 6 6 6 5 6 5 9 11 14 22 21
40 34 31 34 34 33 36 38 40 32 26 22 27 20 6 12 21 19 18 13 15 15 11 9 6 7 10 18 13 11 12 15
36 33 28 23 22 28 34 42 45 38 29 30 29 29 13 5 4 16 19 17 19 19 13 8 7 8 10 12 12 16 13 15
43 39 35 19 24 31 32 35 36 31 29 24 24 29 31 13 6 3 12 18 20 20 16 12 9 9 11 10 12 17 14 14
48 45 38 20 33 33 36 37 33 25 24 25 20 21 23 29 24 15 21 21 16 19 19 16 13 11 11 11 11 11 11 12
52 47 40 32 32 38 41 39 33 30 26 23 20 21 21 17 16 17 11 12 11 16 17 17 16 14 13 13 14 13 12 12
55 55 52 45 35 41 43 44 37 35 31 26 22 25 28 23 24 26 23 17 14 9 14 19 19 17 16 15 15 15 14 14
56 58 57 52 47 51 51 50 48 40 38 36 32 29 29 26 23 21 21 21 13 16 12 22 26 23 19 18 18 17 17 17
58 57 56 54 52 53 57 56 54 51 47 45 43 39 33 31 32 30 29 26 18 17 20 25 29 30 27 22 20 19 18 18
56 60 58 59 59 58 60 62 60 59 59 52 50 48 44 41 40 41 39 37 31 25 21 27 28 31 29 28 23 22 21 21
Wind_Direction
197 229 252 263 258 279 284 301 310 303 323 7 357 274 259 263 199 199 191 269 194 149 234 260 258 305 284 301 285 277 256 241
205 217 241 255 241 266 267 312 319 296 304 313 326 307 282 258 215 188 169 140 193 141 231 254 299 284 302 302 293 273 264 233
207 216 227 266 256 250 283 280 313 301 274 287 287 316 305 243 243 200 156 123 123 139 246 284 299 306 312 315 306 271 221 207
213 216 205 219 205 292 300 298 325 309 292 299 300 301 303 204 228 197 179 137 123 111 349 312 300 308 318 329 329 244 212 199
209 221 230 218 251 262 310 318 323 324 289 281 280 295 282 281 263 221 182 70 97 141 251 270 282 311 338 348 336 239 210 202
223 217 227 210 229 257 253 273 302 300 297 293 259 288 307 289 265 265 230 175 164 120 208 243 277 308 358 3 341 202 182 189
253 214 215 216 216 222 237 248 281 283 301 285 288 288 292 288 247 237 225 182 169 156 221 218 268 289 18 4 3 166 162 190
251 253 226 220 219 227 226 250 261 260 280 296 306 275 273 247 248 207 212 176 135 197 195 181 241 248 25 340 343 159 150 156
244 248 247 236 214 225 221 233 245 261 272 273 276 273 275 275 235 219 212 159 184 188 185 167 219 182 177 76 42 107 141 144
253 246 245 241 230 228 229 225 237 249 255 289 280 290 252 270 186 204 203 184 142 179 172 177 184 165 164 116 101 77 102 117
251 256 256 244 237 232 232 230 234 244 246 261 275 290 261 232 295 217 202 179 162 166 180 180 176 164 164 137 121 117 119 122
256 257 263 253 240 226 224 238 235 240 243 253 257 270 281 226 20 197 194 177 164 162 169 174 171 167 170 179 179 146 139 144
256 259 260 259 220 207 214 225 228 235 233 244 248 257 256 225 239 287 226 199 178 165 172 180 191 183 179 185 165 169 173 179
246 251 254 242 211 212 211 220 223 224 232 240 249 251 258 256 238 251 221 210 177 176 186 191 188 201 188 178 181 184 192 189
237 238 240 233 219 223 220 224 228 224 221 234 245 259 273 265 253 229 247 212 203 188 196 203 200 197 192 179 182 181 189 204
231 240 243 240 221 225 230 231 232 228 222 223 224 234 249 253 242 231 232 227 231 221 219 212 219 210 191 188 188 184 189 197
233 235 241 242 237 228 224 229 232 225 225 228 228 233 243 251 255 248 248 250 220 205 237 224 214 216 211 192 196 190 187 190
231 234 236 237 234 230 227 226 228 232 224 223 229 230 231 236 246 247 249 254 223 210 207 246 232 214 217 206 201 202 198 197
229 229 228 232 235 235 232 229 228 225 229 228 224 228 232 235 240 245 250 254 254 242 245 219 223 218 215 221 213 208 211 203
Height
5894 5895 5897 5897 5902 5905 5904 5905 5905 5908 5909 5905 5897 5895 5903 5904 5901 5901 5901 5900 5901 5897 5897 5900 5901 5899 5901 5899 5899 5899 5897 5897
5889 5887 5892 5890 5898 5901 5902 5900 5902 5902 5904 5904 5902 5901 5902 5905 5900 5900 5897 5896 5897 5894 5898 5899 5897 5897 5898 5897 5896 5894 5892 5893
5884 5887 5892 5890 5891 5898 5899 5898 5899 5899 5902 5902 5899 5898 5897 5901 5900 5900 5895 5894 5895 5894 5895 5896 5895 5895 5896 5895 5892 5888 5888 5890
5880 5887 5890 5888 5887 5892 5892 5895 5895 5895 5899 5897 5896 5894 5890 5897 5900 5900 5896 5894 5891 5893 5895 5893 5894 5895 5894 5891 5886 5885 5886 5888
5878 5881 5884 5885 5887 5888 5891 5891 5892 5893 5893 5893 5895 5893 5889 5886 5891 5897 5895 5896 5893 5890 5893 5896 5894 5895 5891 5887 5883 5883 5885 5887
5872 5878 5881 5882 5883 5885 5888 5888 5889 5890 5889 5886 5890 5891 5887 5882 5883 5893 5894 5895 5893 5891 5893 5894 5892 5892 5889 5886 5882 5881 5884 5886
5865 5871 5872 5876 5878 5881 5882 5884 5885 5886 5885 5882 5885 5885 5885 5880 5880 5886 5891 5892 5890 5890 5892 5891 5891 5891 5888 5885 5883 5881 5882 5885
5860 5864 5867 5869 5874 5876 5879 5880 5880 5878 5879 5877 5879 5879 5881 5878 5881 5883 5887 5886 5886 5890 5892 5892 5891 5890 5888 5886 5881 5881 5883 5886
5853 5858 5859 5861 5868 5870 5873 5875 5874 5875 5876 5874 5873 5874 5874 5873 5877 5883 5883 5879 5886 5889 5891 5889 5890 5890 5890 5888 5885 5881 5885 5889
5845 5848 5847 5855 5860 5864 5867 5871 5869 5870 5872 5873 5867 5870 5871 5873 5873 5877 5879 5881 5877 5886 5891 5889 5891 5892 5893 5890 5890 5888 5889 5893
5838 5840 5843 5846 5852 5857 5860 5864 5861 5864 5867 5870 5865 5867 5871 5874 5876 5878 5878 5879 5879 5883 5892 5893 5892 5894 5895 5893 5893 5895 5896 5898
5831 5833 5835 5842 5846 5846 5847 5849 5854 5858 5862 5864 5866 5864 5869 5871 5874 5870 5875 5876 5877 5881 5888 5892 5892 5893 5895 5894 5896 5899 5899 5900
5822 5824 5828 5836 5838 5838 5841 5844 5847 5851 5854 5858 5860 5863 5865 5871 5871 5872 5874 5877 5877 5875 5882 5887 5891 5892 5894 5895 5897 5899 5902 5903
5814 5817 5821 5831 5833 5834 5834 5835 5841 5844 5847 5853 5855 5858 5860 5865 5871 5869 5872 5877 5873 5873 5880 5885 5887 5891 5893 5895 5896 5897 5900 5902
5806 5811 5813 5821 5826 5828 5829 5830 5834 5840 5844 5847 5849 5850 5855 5859 5862 5866 5871 5875 5873 5874 5879 5884 5886 5888 5891 5893 5894 5897 5899 5903
5799 5800 5803 5810 5815 5817 5821 5824 5827 5832 5837 5841 5845 5849 5850 5854 5858 5861 5866 5868 5869 5872 5878 5881 5886 5888 5887 5890 5892 5894 5897 5901
5783 5789 5791 5797 5803 5805 5808 5813 5821 5826 5830 5833 5838 5841 5846 5849 5850 5853 5857 5861 5869 5874 5875 5877 5880 5884 5887 5886 5890 5892 5895 5897
5769 5775 5779 5783 5787 5791 5796 5802 5807 5814 5822 5826 5829 5833 5837 5842 5845 5847 5851 5856 5863 5865 5871 5871 5875 5879 5883 5884 5884 5888 5890 5893
5756 5762 5766 5769 5773 5777 5782 5788 5793 5799 5805 5814 5821 5825 5829 5834 5839 5842 5845 5849 5853 5859 5865 5867 5868 5875 5878 5881 5882 5883 5887 5889